Вернуться в каталог

CZ-8A R/B

АктивенLEO
NORAD 66004·ROCKET BODY·🇨🇳 China

Запущен Oct 16, 2025 с Wenchang Space Launch Site

Loading…

Ближайшие Пролёты (ближайшие 24 часа)

TLE

СвежийSource: Space-Track

Эпоха: Sep 14, 2026, 15:08 UTC

1 66004U 25231K   26257.63083023 -.00000001  00000-0  58102-4 0  9998
2 66004  50.0056  18.7639 0116788 179.1484 180.9651 14.30181519 47748

Отслеживайте CZ-8A R/B в реальном времени с AllMySat

Download on the App Store